Home > Weather > Oral > Past weeks

Flag for Kazakhstan Weather for the Past 2 Weeks in Oral, Kazakhstan

Now
14 °F

Passing clouds.


Feels Like: 3 °F
Forecast: 6 / 18 °F
Wind: 8 mph from East

Location: Uralsk

Current Time: Feb 12, 2016 at 9:57:00 PM

Latest Report: Feb 12, 2016 at 9:30 PM


Visibility: 4 mi

Pressure: 30.57 "Hg

Humidity: 100%

Dew point: 14 °F

Location of OralLocation

Historic Weather in Oral — Graph

°F

Oral Temperature Yesterday

Maximum temperature yesterday: 27 °F (at 3:30 PM)
Minimum temperature yesterday: 12 °F (at 7:30 AM)
Average temperature yesterday: 21 °F

High & Low Weather Summary for the Past Weeks

 TemperatureHumidityPressure
High36 °F (Feb 4, 1:00 AM)100% (Jan 29, 8:30 PM)30.69 "Hg (Jan 29, 8:30 PM)
Low-4 °F (Jan 28, 10:00 PM)69% (Feb 8, 3:30 PM)29.62 "Hg (Feb 4, 3:00 AM)
Average25 °F93%30.14 "Hg
* Reported Jan 28 8:00 PM — Feb 12 8:30 PM, Oral, Weather by CustomWeather, © 2016

Note: Actual official high and low records may vary slightly from our data, if they occured in-between our weather recording intervals... More about our weather records

Advertising

Oral Weather History for the Previous 24 Hours

 ConditionsComfort  
Time TempWeatherWind HumidityBarometerVisibility
8:30 PM
Fri, Feb 12
16 °FIce fog.8 mph93%30.60 "Hg1 mi
8:00 PM16 °FIce fog.8 mph93%30.60 "Hg2 mi
7:30 PM18 °FIce fog.8 mph93%30.60 "Hg1 mi
7:00 PM18 °FPassing clouds.8 mph100%30.60 "Hg4 mi
6:30 PM19 °FClear.8 mph93%30.60 "Hg5 mi
6:00 PM21 °FSunny.8 mph93%30.60 "Hg10 mi
5:30 PM23 °FSunny.10 mph93%30.60 "Hg10 mi
5:00 PM25 °FSunny.8 mph86%30.60 "Hg10 mi
4:30 PM25 °FSunny.8 mph86%30.60 "Hg10 mi
4:00 PM25 °FSunny.10 mph86%30.60 "Hg10 mi
3:30 PM25 °FSunny.8 mph86%30.60 "Hg10 mi
3:00 PM25 °FSunny.8 mph86%30.63 "Hg10 mi
2:30 PM25 °FSunny.8 mph86%30.63 "Hg10 mi
2:00 PM25 °FSunny.8 mph86%30.63 "Hg10 mi
1:30 PM23 °FSunny.8 mph93%30.63 "Hg10 mi
1:00 PM23 °FSunny.10 mph93%30.63 "Hg10 mi
12:30 PM21 °FPassing clouds.8 mph93%30.63 "HgN/A
12:00 PM21 °FScattered clouds.8 mph93%30.63 "Hg5 mi
11:30 AM21 °FScattered clouds.6 mph93%30.63 "Hg4 mi
11:00 AM19 °FIce fog.8 mph100%30.63 "Hg2 mi
10:30 AM19 °FIce fog.10 mph93%30.63 "Hg1 mi
10:00 AM19 °FIce fog.8 mph93%30.63 "Hg1 mi
9:30 AM19 °FIce fog.10 mph93%30.63 "Hg1 mi
9:00 AM18 °FIce fog.13 mph100%30.63 "Hg1 mi
8:30 AM18 °FPassing clouds.10 mph93%30.63 "Hg4 mi
8:00 AM16 °FClear.10 mph100%30.63 "Hg6 mi
7:30 AM16 °FClear.8 mph93%30.63 "Hg10 mi
7:00 AM18 °FClear.10 mph93%30.63 "Hg10 mi
6:30 AM18 °FClear.10 mph93%30.63 "Hg10 mi
6:00 AM18 °FClear.10 mph93%30.63 "Hg10 mi
5:00 AM19 °FPartly cloudy.8 mph93%30.63 "HgN/A
4:00 AM21 °FPartly cloudy.10 mph93%30.63 "HgN/A
3:00 AM21 °FMostly cloudy.10 mph100%30.63 "HgN/A
2:00 AM25 °FMostly cloudy.8 mph93%30.66 "HgN/A
1:00 AM27 °FMostly cloudy.15 mph93%30.66 "HgN/A
12:00 AM27 °FMostly cloudy.13 mph93%30.66 "HgN/A
11:00 PM
Thu, Feb 11
27 °FMostly cloudy.13 mph93%30.66 "HgN/A
10:00 PM27 °FMostly cloudy.15 mph93%30.66 "HgN/A
9:00 PM27 °FMostly cloudy.13 mph100%30.66 "HgN/A
Weather by CustomWeather, © 2016

See weather overviewHow to use our weather pages